Lapse_Rate
7.4 7.4 7.4 7.5 7.2 7.4 6.1 6.8 6.5 3.5 3.3 6.1 6.1 6.5 6.5 6.1 6.4 6.2 6.4 6.4 6.5 6.5 6.5 6.5 6.5 6.5 6.5 5.6 5.8 6.5 6.5 6.5 6.5 6.5 6.5 6.5 6.5 6.5 6.5 6.5 6.5 6.5 6.5 6.5
7.8 6.9 7.1 7.6 7.6 7.4 7.4 7.0 5.8 3.8 4.1 6.5 6.5 6.5 6.5 6.4 6.5 6.5 6.5 6.5 6.5 6.5 6.5 6.5 6.5 6.5 6.3 6.0 6.4 6.5 6.5 6.5 6.5 6.5 6.5 6.5 6.5 6.5 6.5 6.5 6.5 6.5 6.5 6.5
7.7 7.7 7.8 8.0 7.5 7.6 6.5 6.8 6.5 6.2 5.7 5.6 6.5 6.5 6.5 6.5 5.9 6.4 5.9 6.5 6.4 6.5 6.5 6.5 6.5 6.5 6.5 6.2 6.3 6.5 6.4 6.5 6.5 6.5 6.5 6.5 6.5 6.5 6.5 6.5 6.5 6.5 6.5 6.5
7.4 8.0 8.8 8.3 8.2 7.3 7.0 6.6 6.5 6.2 6.5 6.6 6.5 6.5 6.5 6.5 6.5 6.4 6.2 6.5 6.5 6.5 6.5 6.5 6.5 6.5 6.5 6.5 6.7 6.3 6.5 6.5 6.5 6.5 6.5 6.5 6.5 6.5 6.5 6.5 6.5 6.5 6.5 6.5
7.7 8.1 8.6 8.7 8.1 8.3 6.4 6.6 6.8 6.2 6.6 6.1 6.5 6.5 6.5 6.5 6.5 6.5 6.5 6.5 6.5 6.5 6.5 6.5 6.5 6.5 6.5 6.5 6.5 6.5 6.5 6.5 6.5 6.5 6.5 6.5 6.5 6.5 6.5 6.5 6.5 6.5 6.5 6.5
8.4 8.6 8.1 8.3 8.2 8.0 6.4 6.5 6.5 6.5 6.6 6.4 6.5 6.5 6.5 6.5 6.5 6.3 6.5 6.5 6.5 6.5 6.5 5.9 5.6 5.6 6.1 6.6 6.5 6.5 6.5 6.5 6.5 6.5 6.5 6.5 6.5 6.5 6.5 6.5 6.5 6.5 6.5 6.5
8.5 8.2 8.0 8.5 8.2 7.9 6.8 6.0 6.1 6.4 6.5 6.5 6.5 6.5 6.4 6.5 6.4 6.5 6.2 5.9 6.4 5.9 4.4 4.7 5.1 5.6 5.8 5.9 6.2 5.9 6.5 6.5 6.5 6.5 6.5 6.5 6.5 6.5 6.5 6.5 6.5 6.5 6.5 6.5
8.4 8.3 8.8 8.4 8.4 8.1 7.2 6.8 6.3 6.5 6.5 6.5 6.5 6.5 6.5 6.2 6.3 6.4 6.3 5.8 5.1 4.6 5.4 6.5 6.5 6.5 6.5 6.5 6.5 6.5 6.4 6.5 6.5 6.5 6.5 6.5 6.5 6.5 6.5 6.5 6.5 6.5 6.5 6.5
7.9 7.8 7.6 8.5 8.3 8.0 7.2 6.8 6.8 6.8 6.3 6.5 6.5 6.5 6.5 6.5 6.5 6.5 6.2 3.7 2.8 5.0 6.4 6.5 6.5 6.5 6.5 6.5 6.5 6.5 6.5 6.5 6.5 6.5 6.5 6.5 6.5 6.5 5.9 6.4 6.5 6.3 6.1 6.4
8.4 8.0 7.8 7.7 7.9 8.0 7.0 6.1 7.0 6.2 6.1 5.9 5.7 6.5 6.4 6.5 6.5 6.5 6.1 5.6 5.7 5.7 6.5 6.5 6.5 6.5 6.5 6.5 6.5 6.5 6.5 6.5 6.5 6.5 6.5 6.5 6.5 6.2 5.7 6.5 6.5 5.8 4.9 4.9
8.5 8.3 8.2 8.0 7.9 7.5 7.1 6.4 7.0 7.1 6.5 5.9 6.2 7.1 6.4 6.4 6.5 6.5 6.4 6.4 6.1 6.5 6.5 6.5 6.5 6.5 6.5 6.5 6.5 6.5 6.5 6.5 6.5 6.5 6.5 6.5 5.8 6.3 6.5 6.2 4.6 4.1 4.1 4.2
8.9 8.4 8.2 8.2 7.9 7.7 7.7 6.1 5.7 6.7 6.8 5.2 4.8 6.1 7.4 7.7 6.3 5.7 6.0 6.1 6.1 6.1 6.5 6.5 6.5 6.5 6.5 6.5 6.5 6.5 6.5 6.5 6.5 6.5 6.5 6.1 4.8 5.9 3.9 2.8 2.9 3.1 3.0 2.5
8.6 8.7 8.7 8.9 8.6 7.9 7.5 6.2 5.3 6.0 4.7 5.1 4.5 4.6 5.3 4.3 4.2 4.4 6.1 5.3 5.9 5.4 5.1 5.8 6.5 6.5 6.5 6.5 6.5 6.5 6.5 5.8 6.5 6.5 6.5 6.2 4.9 4.1 3.8 2.8 3.4 2.6 3.2 2.4
9.0 8.7 8.8 9.3 9.2 8.1 7.9 6.3 5.3 5.9 5.4 6.4 5.6 3.4 4.6 3.4 3.8 4.8 4.6 5.4 4.4 4.6 5.1 6.1 6.5 6.5 6.2 6.5 6.5 6.5 6.2 6.1 6.5 6.5 6.4 5.9 4.3 3.0 3.3 3.0 3.3 2.5 2.6 2.8
9.1 9.1 8.9 8.8 9.0 8.6 7.6 6.0 5.5 5.3 6.7 6.5 5.7 3.5 3.1 2.3 3.9 4.5 4.7 5.6 4.4 4.9 6.2 6.5 6.5 5.9 6.3 6.5 6.5 6.5 5.5 6.5 6.5 6.5 5.3 5.3 4.3 2.7 2.1 2.6 2.2 2.5 2.9 3.1
8.8 8.7 8.5 8.6 8.6 8.3 6.4 5.4 4.7 5.7 5.7 6.0 6.5 4.9 3.9 3.5 3.7 4.8 4.9 4.8 4.4 4.9 6.2 6.4 5.7 4.4 6.1 6.5 6.5 5.9 2.9 2.5 3.5 5.4 3.7 3.2 2.1 1.8 1.8 2.6 2.5 2.4 2.8 3.3
8.9 8.6 8.4 8.5 8.5 7.0 5.3 5.9 4.5 6.1 6.5 5.8 6.4 6.5 5.6 5.1 5.4 4.9 4.8 4.3 4.7 5.4 6.1 6.5 6.4 6.2 6.4 6.5 6.5 5.9 2.8 2.7 3.3 3.9 3.4 4.8 3.8 3.6 2.2 3.0 2.9 4.2 2.9 3.2
8.3 8.3 8.6 8.4 8.4 8.2 6.5 4.8 6.2 6.0 4.8 5.2 6.5 6.5 6.0 5.6 6.4 6.3 5.3 6.0 5.9 5.8 6.3 6.0 6.5 6.2 6.5 6.5 6.3 4.5 3.9 2.7 3.5 3.6 4.2 3.7 1.2 1.3 1.3 2.2 2.5 2.9 3.2 3.3
7.6 7.9 8.2 6.9 5.5 5.6 4.6 5.9 5.1 4.7 6.0 6.4 6.5 6.5 6.5 6.1 5.8 5.8 5.8 6.0 6.5 5.7 6.5 6.5 6.4 6.5 6.5 6.5 5.5 4.6 3.8 4.2 3.5 3.1 2.4 2.1 2.2 2.5 2.9 3.0 3.3 2.9 3.3 3.6
6.8 7.4 4.8 4.7 3.8 5.1 5.9 4.6 5.5 5.1 4.6 5.4 6.5 6.1 6.5 5.9 6.1 6.5 5.9 5.8 6.5 6.5 6.5 6.3 6.5 6.5 6.0 5.0 3.7 2.9 2.2 2.5 2.3 2.4 4.1 3.9 3.6 3.3 3.4 3.4 2.8 3.2 3.5 3.6
3.9 4.1 3.5 5.3 4.7 4.2 4.4 5.8 6.2 5.6 6.5 6.5 6.3 5.6 6.4 5.5 6.5 6.5 6.0 6.5 6.5 6.5 6.5 6.5 6.5 6.5 5.3 0.3 -0.2 -1.0 -2.0 0.4 -0.4 -0.1 0.5 2.5 1.4 1.5 1.9 2.7 3.3 3.4 3.5 3.5
4.3 3.2 4.5 4.0 4.1 3.9 6.4 6.5 6.4 6.5 6.5 6.1 5.9 5.3 5.7 6.3 6.2 6.5 6.6 6.5 6.5 6.5 5.5 6.5 6.5 6.5 4.5 1.3 -0.8 -1.2 -1.7 0.4 1.1 1.0 0.8 0.9 1.8 1.5 0.8 0.7 1.8 3.1 3.1 3.1
3.2 2.9 3.5 5.3 3.2 6.5 6.5 6.5 6.5 6.5 6.0 5.5 5.4 6.5 6.1 6.0 6.4 6.6 6.5 6.5 6.5 6.4 6.5 6.5 6.5 4.3 3.5 0.7 -0.0 1.0 0.2 0.5 1.1 1.1 1.3 1.1 0.6 1.7 -0.5 -0.5 1.4 0.6 0.1 1.2
4.0 5.0 6.5 6.5 6.5 6.5 6.5 6.5 6.5 6.5 6.5 6.4 6.2 6.6 6.6 6.8 6.5 6.5 6.5 6.5 6.5 6.5 6.5 6.5 6.5 3.9 2.7 0.6 1.2 1.4 1.4 0.6 0.6 1.5 1.7 1.5 1.7 1.1 1.6 1.7 0.6 0.6 0.8 1.9
3.3 5.1 6.5 6.5 6.1 4.6 5.4 4.8 6.2 6.2 6.2 6.1 6.3 6.3 6.8 6.5 6.5 6.5 6.5 6.5 6.5 6.5 6.5 6.5 5.2 4.8 1.6 2.8 3.9 2.0 1.5 -0.2 -1.2 -1.1 -0.1 0.1 0.7 0.3 0.7 1.0 0.9 1.3 1.8 2.1
2.3 4.1 5.5 6.3 6.0 6.3 6.0 6.1 5.9 5.2 4.8 5.2 5.1 6.5 6.5 6.5 6.5 6.5 6.5 6.5 6.5 6.5 6.5 5.7 4.5 5.1 4.6 4.5 4.5 3.9 0.9 -0.1 0.1 -1.4 0.4 1.5 0.5 0.7 1.5 0.4 -0.4 0.2 1.7 2.5
0.3 4.1 6.1 3.2 2.8 3.6 4.0 3.6 5.9 1.7 2.4 6.5 5.7 6.5 6.5 6.6 6.5 6.5 6.5 6.5 6.5 5.5 5.4 5.3 3.7 2.6 1.7 1.0 2.2 3.0 2.6 1.9 0.6 -1.9 -1.1 0.0 -0.2 -2.6 -3.1 0.0 1.7 1.9 3.0 3.2
Wind_Speed
8 5 4 3 7 11 2 2 3 2 2 2 2 5 5 4 3 2 4 4 7 5 4 5 8 9 8 4 7 4 4 4 4 8 2 2 2 7 6 4 5 3 2 8
12 9 7 7 5 7 2 2 1 1 1 4 4 1 1 4 6 5 5 7 7 5 7 4 5 4 2 4 5 3 3 3 3 5 1 2 5 5 5 3 2 6 4 7
12 12 12 9 8 6 3 3 2 1 2 0 3 8 6 10 4 3 5 4 3 3 6 8 3 5 2 1 3 4 3 3 6 11 3 3 4 6 7 9 3 7 13 22
12 13 13 14 14 13 2 3 3 4 3 5 10 1 3 2 6 3 3 4 9 7 5 6 6 4 3 2 4 2 1 6 6 8 6 5 5 6 11 11 14 9 21 12
15 15 13 14 15 16 4 3 3 3 2 2 12 13 10 12 7 4 4 3 6 5 8 9 6 5 4 5 3 6 4 3 3 5 8 11 17 16 15 18 15 17 23 22
12 15 16 13 13 15 3 3 1 2 5 5 6 8 16 16 10 5 13 11 5 7 13 11 6 4 6 4 4 5 4 3 2 11 4 6 11 16 17 14 14 15 17 23
13 14 17 18 17 13 3 3 2 3 4 10 13 8 15 15 14 15 4 9 14 5 6 5 4 3 3 6 10 9 5 3 2 3 2 10 7 2 7 17 17 13 8 8
17 14 18 19 20 18 5 1 3 4 9 6 7 14 10 10 9 12 9 4 3 6 4 2 0 1 2 7 12 14 14 9 5 6 5 11 13 5 6 7 7 8 14 6
16 16 17 17 18 14 6 5 6 5 4 13 11 7 9 7 5 3 7 1 1 2 3 3 6 6 6 4 3 4 8 12 9 8 7 7 2 3 3 4 6 5 5 5
17 18 18 19 18 21 9 4 8 3 3 3 5 8 9 6 5 3 2 5 2 4 5 7 5 5 6 5 6 5 4 5 16 15 11 4 7 5 2 2 6 4 5 5
16 16 17 19 19 19 9 4 9 6 4 4 5 10 4 2 7 6 4 3 2 3 6 4 3 5 6 4 6 7 8 7 5 4 7 11 5 4 7 3 3 5 5 6
18 17 18 17 18 19 17 4 3 4 6 2 3 12 17 17 7 6 6 2 5 5 4 3 2 3 3 4 5 1 5 7 5 8 6 1 7 3 3 5 5 5 5 6
19 20 19 19 17 18 16 3 3 2 1 2 2 6 4 4 5 3 5 3 4 3 2 2 2 3 3 3 4 2 4 3 3 2 4 6 7 4 3 6 4 4 2 5
22 21 20 21 19 18 18 3 3 2 2 2 3 2 3 6 4 3 2 3 3 4 2 3 2 2 4 3 2 5 4 6 6 5 4 3 5 7 6 6 5 6 5 6
23 22 21 21 19 18 15 5 6 4 3 2 2 1 3 2 6 4 3 6 6 2 3 3 4 2 3 1 1 4 6 8 5 6 6 4 5 4 7 9 8 7 7 6
25 23 22 20 19 17 1 2 3 15 4 1 2 3 1 2 3 4 1 1 1 2 3 2 2 1 4 4 4 6 6 5 4 4 2 4 1 3 3 7 7 7 8 6
26 24 24 22 20 6 3 3 3 12 4 2 2 2 1 0 1 1 1 2 0 0 1 3 2 2 3 2 4 4 7 6 5 3 5 1 2 2 4 5 6 8 7 6
23 24 24 22 20 10 4 4 4 9 1 2 3 1 1 3 2 2 0 1 1 0 0 1 2 1 1 5 4 4 2 5 4 5 1 2 6 6 6 6 6 8 7 5
33 28 25 4 2 3 2 7 10 6 1 2 2 4 4 4 1 1 1 1 1 1 2 2 3 2 5 4 6 6 6 5 6 5 6 7 7 7 6 6 6 7 5 4
38 13 3 3 3 9 8 3 2 2 2 2 3 3 1 3 2 1 2 2 2 2 1 1 3 3 3 2 3 2 3 6 9 6 4 5 4 6 5 5 4 5 4 3
3 3 3 2 7 2 1 3 3 0 1 1 1 2 3 1 3 3 2 2 2 2 2 2 2 3 4 4 5 4 3 4 3 3 3 5 6 6 5 4 4 3 2 2
8 9 6 3 2 2 3 1 0 2 3 2 4 3 2 2 1 2 2 2 2 3 2 2 3 3 3 3 3 5 4 6 7 4 8 7 7 5 4 3 2 2 3 3
4 5 4 1 3 3 4 5 3 1 1 2 2 2 2 2 1 2 2 3 2 2 2 3 4 3 3 2 2 4 4 6 6 5 4 5 3 3 4 3 4 4 4 5
3 3 4 0 1 1 2 2 2 1 1 3 3 2 2 1 2 1 3 2 2 2 1 4 2 3 4 3 1 2 2 3 3 3 3 3 3 3 3 5 4 5 7 6
3 3 2 1 1 2 2 1 0 3 1 2 3 3 2 2 3 2 3 2 2 4 4 2 2 4 3 1 2 2 1 1 3 2 3 4 4 4 7 6 6 7 7 7
3 5 3 1 1 2 2 3 2 3 1 1 2 3 3 2 2 2 3 5 4 2 2 2 2 3 4 4 4 4 3 4 5 4 4 6 5 6 7 5 6 6 8 10
4 3 2 2 2 2 1 1 2 1 2 1 3 4 3 1 3 1 2 4 2 2 2 1 2 3 5 4 5 6 5 5 5 4 5 6 5 3 2 8 9 7 10 10
Wind_Direction
226 223 277 301 317 318 187 204 200 98 282 204 227 223 189 154 214 143 203 151 188 226 226 237 230 227 203 161 153 199 218 176 233 215 10 26 161 192 168 163 231 242 193 267
210 220 227 242 256 279 292 253 195 149 247 233 211 273 236 233 184 194 172 213 203 179 213 242 232 203 349 146 180 187 211 227 293 298 69 103 202 200 187 105 87 201 213 264
259 224 213 216 222 268 305 157 231 191 192 315 230 255 260 249 240 239 175 200 108 178 203 201 227 222 182 159 199 130 176 220 208 249 236 120 199 189 192 191 168 254 231 266
261 260 244 218 226 208 178 249 216 176 196 204 213 202 10 266 219 224 220 207 211 184 233 218 224 217 230 215 169 43 165 242 220 253 267 265 241 214 185 198 219 212 269 242
247 260 257 259 223 225 199 267 214 172 155 187 206 210 219 246 248 150 257 241 219 227 243 240 223 195 190 214 171 175 183 273 207 264 236 253 264 250 230 233 240 241 250 268
251 252 255 261 252 214 229 216 252 300 189 187 191 206 215 222 221 240 252 245 226 214 230 235 246 203 153 187 205 214 222 203 203 272 216 277 271 240 218 225 229 225 241 246
252 259 258 242 250 243 213 244 219 222 263 217 221 220 207 213 205 213 217 208 230 241 103 91 63 61 231 216 226 180 205 225 209 250 113 262 265 276 222 216 239 219 253 255
241 248 261 258 239 243 239 282 237 211 245 252 227 225 219 226 224 221 237 228 207 147 102 100 231 294 299 232 228 215 206 225 248 251 232 283 286 207 195 173 258 205 224 239
254 256 252 257 250 255 255 234 231 285 239 228 222 230 216 227 196 164 225 128 120 65 144 164 189 210 198 222 270 20 210 225 239 229 236 251 251 187 154 122 276 208 162 163
248 251 256 259 250 230 231 275 206 220 278 242 156 213 201 178 177 203 144 169 176 165 202 215 189 214 188 204 197 184 178 207 224 234 246 242 252 144 153 163 272 160 161 168
247 253 259 263 261 248 211 232 247 235 258 240 226 244 190 184 192 193 152 113 184 170 215 221 214 199 200 195 201 181 179 180 206 229 254 266 129 76 178 193 163 163 160 170
250 250 259 263 268 264 228 227 202 248 235 287 314 254 235 226 215 215 183 233 173 183 197 185 187 223 158 182 239 89 216 195 185 194 213 349 199 199 196 173 160 191 173 179
250 253 255 262 266 264 226 211 174 198 318 252 197 213 280 268 200 212 209 189 191 192 191 156 170 195 155 191 242 227 257 163 221 128 213 215 215 224 192 184 188 171 193 162
247 252 255 261 261 263 242 212 167 133 138 259 256 9 275 311 297 197 235 161 112 131 129 194 156 188 178 217 271 212 191 140 195 257 277 302 260 232 199 187 168 159 146 162
252 253 253 259 267 266 271 199 186 189 181 279 299 45 222 282 297 246 190 180 151 158 152 198 201 163 141 174 129 242 186 192 179 224 203 189 227 230 175 178 186 168 148 141
253 252 251 252 258 264 203 216 230 197 142 182 267 0 276 358 348 280 228 154 126 164 188 165 215 104 162 190 215 247 199 203 189 228 178 186 120 353 183 182 176 162 157 142
247 244 243 244 246 229 204 238 193 178 132 175 230 227 325 285 20 9 45 11 329 180 154 205 197 191 192 209 228 205 205 206 206 185 125 140 175 188 103 120 128 132 103 105
239 249 236 236 235 230 219 205 134 122 68 220 208 216 93 192 170 181 278 149 128 238 79 88 171 150 230 248 232 229 136 130 134 150 111 155 117 94 87 94 108 105 106 112
225 238 223 219 115 186 243 144 114 84 180 276 92 166 207 153 122 94 78 98 172 113 208 195 160 169 224 240 217 202 188 167 167 114 104 101 106 113 100 98 104 118 121 112
210 175 136 146 204 156 115 57 182 186 158 163 170 149 179 125 137 137 114 212 206 209 206 122 223 253 285 317 320 319 196 156 135 109 117 121 126 137 129 117 106 111 122 118
80 109 86 77 34 67 65 209 151 32 324 181 103 133 142 238 130 166 204 170 153 191 219 203 247 266 252 303 312 320 284 153 115 132 112 110 130 144 137 135 137 139 157 191
108 106 88 68 42 59 114 28 70 164 214 160 146 179 140 141 165 126 159 157 142 220 101 83 264 256 293 343 350 10 52 115 101 86 109 108 117 132 135 156 188 226 266 287
57 54 66 81 292 84 165 197 276 260 178 176 152 111 114 108 67 90 129 156 155 94 86 234 234 292 330 319 9 49 48 80 98 91 93 112 123 143 161 210 226 240 249 252
66 74 65 70 78 306 172 168 164 124 181 137 103 83 92 112 81 33 116 57 97 71 359 241 259 282 300 288 30 72 78 85 117 142 156 174 196 239 245 235 220 236 254 250
76 41 88 49 236 229 237 205 272 13 14 108 110 79 78 53 104 39 110 72 252 202 227 237 301 335 345 31 26 26 335 269 267 242 225 240 248 247 268 247 238 231 245 250
78 50 69 282 63 37 32 31 55 20 20 69 41 109 91 72 103 119 202 145 221 256 236 283 333 10 11 5 341 314 258 247 250 245 250 264 253 244 255 263 238 235 236 249
50 13 25 104 88 162 310 37 2 21 99 137 108 67 200 96 51 349 203 190 240 269 304 304 276 275 288 287 295 288 276 273 258 248 243 248 242 240 255 267 268 241 248 247